timestamp,wind_dir_avg,wind_spd_max_dir,wind_spd_avg,wind_spd_gust,battery_voltage,lat,long
2017-10-06 00:00:00+00:00,254.0,255.0,7.32,7.97,12.7,47.59359,-54.27349
2017-10-06 00:10:00+00:00,258.0,259.0,7.4,8.04,12.6,47.59359,-54.27349
2017-10-06 00:20:00+00:00,258.0,251.0,7.87,8.87,12.7,47.59359,-54.27349
2017-10-06 00:30:00+00:00,267.0,268.0,8.79,11.77,12.7,47.59359,-54.27349
2017-10-06 00:40:00+00:00,269.0,269.0,8.3,9.7,12.7,47.59359,-54.27349
2017-10-06 00:50:00+00:00,267.0,267.0,9.55,10.48,12.7,47.59359,-54.27349
2017-10-06 01:00:00+00:00,271.0,274.0,8.32,9.41,12.6,47.59359,-54.27349
2017-10-06 01:10:00+00:00,263.0,264.0,7.2,8.5,12.6,47.59359,-54.27349
2017-10-06 01:20:00+00:00,265.0,263.0,7.91,8.98,12.7,47.59359,-54.27349
2017-10-06 01:30:00+00:00,273.0,274.0,7.49,8.06,12.7,47.59359,-54.27349
2017-10-06 01:40:00+00:00,270.0,272.0,6.33,6.94,12.7,47.59359,-54.27349
2017-10-06 01:50:00+00:00,274.0,273.0,6.5,7.69,12.7,47.59359,-54.27349
2017-10-06 02:00:00+00:00,284.0,279.0,6.33,7.13,12.6,47.59359,-54.27349
2017-10-06 02:10:00+00:00,280.0,286.0,7.2,8.2,12.6,47.59359,-54.27349
2017-10-06 02:20:00+00:00,290.0,293.0,6.66,8.11,12.6,47.59359,-54.27349
2017-10-06 02:30:00+00:00,284.0,274.0,7.13,8.14,12.6,47.59359,-54.27349
2017-10-06 02:40:00+00:00,273.0,277.0,5.95,6.56,12.7,47.59359,-54.27349
2017-10-06 02:50:00+00:00,280.0,283.0,5.07,5.55,12.7,47.59359,-54.27349
2017-10-06 03:00:00+00:00,258.0,262.0,4.86,5.35,12.6,47.59359,-54.27349
2017-10-06 03:10:00+00:00,256.0,252.0,4.35,5.05,12.6,47.59359,-54.27349
2017-10-06 03:20:00+00:00,281.0,288.0,4.36,5.09,12.6,47.59359,-54.27349
2017-10-06 03:30:00+00:00,283.0,284.0,5.24,6.11,12.6,47.59359,-54.27349
2017-10-06 03:40:00+00:00,288.0,282.0,4.41,5.09,12.6,47.59359,-54.27349
2017-10-06 03:50:00+00:00,283.0,285.0,4.79,5.62,12.6,47.59359,-54.27349
2017-10-06 04:00:00+00:00,280.0,282.0,4.46,5.05,12.6,47.59359,-54.27349
2017-10-06 04:10:00+00:00,293.0,296.0,4.8,5.36,12.6,47.59359,-54.27349
2017-10-06 04:20:00+00:00,262.0,264.0,3.98,4.8,12.6,47.59359,-54.27349
2017-10-06 04:30:00+00:00,296.0,306.0,3.33,4.25,12.6,47.59359,-54.27349
2017-10-06 04:40:00+00:00,284.0,278.0,3.22,4.07,12.6,47.59359,-54.27349
2017-10-06 04:50:00+00:00,289.0,291.0,3.81,4.35,12.6,47.59359,-54.27349
2017-10-06 05:00:00+00:00,286.0,290.0,3.53,4.16,12.6,47.59359,-54.27349
2017-10-06 05:10:00+00:00,278.0,271.0,4.93,5.91,12.6,47.59359,-54.27349
2017-10-06 05:20:00+00:00,289.0,285.0,4.84,5.31,12.6,47.59359,-54.27349
2017-10-06 05:30:00+00:00,280.0,284.0,4.23,4.79,12.6,47.59359,-54.27349
2017-10-06 05:40:00+00:00,281.0,289.0,4.5,5.18,12.6,47.59359,-54.27349
2017-10-06 05:50:00+00:00,274.0,276.0,4.88,5.34,12.6,47.59359,-54.27349
2017-10-06 06:00:00+00:00,280.0,281.0,4.69,5.63,12.6,47.59359,-54.27349
2017-10-06 06:10:00+00:00,282.0,285.0,4.51,4.92,12.5,47.59359,-54.27349
2017-10-06 06:20:00+00:00,273.0,270.0,4.49,4.99,12.6,47.59359,-54.27349
2017-10-06 06:30:00+00:00,261.0,260.0,4.39,4.74,12.6,47.59359,-54.27349
2017-10-06 06:40:00+00:00,249.0,250.0,4.46,5.17,12.6,47.59359,-54.27349
2017-10-06 06:50:00+00:00,248.0,249.0,4.81,5.15,12.6,47.59359,-54.27349
2017-10-06 07:00:00+00:00,256.0,261.0,4.77,5.47,12.6,47.59359,-54.27349
2017-10-06 07:10:00+00:00,260.0,259.0,4.39,5.04,12.5,47.59359,-54.27349
2017-10-06 07:20:00+00:00,263.0,264.0,4.01,4.46,12.6,47.59359,-54.27349
2017-10-06 07:30:00+00:00,253.0,255.0,4.79,5.15,12.6,47.59359,-54.27349
2017-10-06 07:40:00+00:00,256.0,260.0,4.84,5.17,12.6,47.59359,-54.27349
2017-10-06 07:50:00+00:00,256.0,255.0,5.3,6.29,12.6,47.59359,-54.27349
2017-10-06 08:00:00+00:00,261.0,267.0,5.55,6.83,12.6,47.59359,-54.27349
2017-10-06 08:10:00+00:00,263.0,260.0,5.42,5.86,12.5,47.59359,-54.27349
2017-10-06 08:20:00+00:00,259.0,259.0,6.57,7.04,12.6,47.59359,-54.27349
2017-10-06 08:30:00+00:00,259.0,256.0,6.11,6.88,12.6,47.59359,-54.27349
2017-10-06 08:40:00+00:00,260.0,260.0,6.35,6.92,12.6,47.59359,-54.27349
2017-10-06 08:50:00+00:00,263.0,261.0,6.1,7.03,12.6,47.59359,-54.27349
2017-10-06 09:00:00+00:00,269.0,273.0,7.74,8.53,12.6,47.59359,-54.27349
2017-10-06 09:10:00+00:00,276.0,278.0,8.06,9.16,12.5,47.59359,-54.27349
2017-10-06 09:20:00+00:00,273.0,277.0,8.31,9.0,12.6,47.59359,-54.27349
2017-10-06 09:30:00+00:00,274.0,271.0,8.39,9.2,12.6,47.59359,-54.27349
2017-10-06 09:40:00+00:00,280.0,284.0,8.01,8.84,12.6,47.59359,-54.27349
2017-10-06 09:50:00+00:00,272.0,271.0,7.97,8.78,12.6,47.59359,-54.27349
2017-10-06 10:00:00+00:00,272.0,270.0,7.9,8.74,12.7,47.59359,-54.27349
2017-10-06 10:10:00+00:00,268.0,268.0,7.79,8.41,13.0,47.59359,-54.27349
2017-10-06 10:20:00+00:00,274.0,272.0,8.04,8.73,13.9,47.59359,-54.27349
2017-10-06 10:30:00+00:00,271.0,270.0,8.57,9.47,13.7,47.59359,-54.27349
2017-10-06 10:40:00+00:00,275.0,278.0,8.72,10.02,13.8,47.59359,-54.27349
2017-10-06 10:50:00+00:00,272.0,272.0,8.2,8.99,13.8,47.59359,-54.27349
2017-10-06 11:00:00+00:00,268.0,261.0,8.01,8.68,13.8,47.59359,-54.27349
2017-10-06 11:10:00+00:00,262.0,259.0,7.7,8.49,13.8,47.59359,-54.27349
2017-10-06 11:20:00+00:00,262.0,261.0,7.29,8.6,13.8,47.59359,-54.27349
2017-10-06 11:30:00+00:00,256.0,260.0,7.2,7.89,13.7,47.59359,-54.27349
2017-10-06 11:40:00+00:00,248.0,249.0,7.01,7.99,13.7,47.59359,-54.27349
2017-10-06 11:50:00+00:00,244.0,246.0,6.74,7.74,14.2,47.59359,-54.27349
2017-10-06 12:00:00+00:00,241.0,237.0,5.96,6.92,13.7,47.59359,-54.27349
2017-10-06 12:10:00+00:00,241.0,242.0,6.35,7.63,13.8,47.59359,-54.27349
2017-10-06 12:20:00+00:00,247.0,250.0,7.19,8.25,13.8,47.59359,-54.27349
2017-10-06 12:30:00+00:00,244.0,233.0,6.94,7.81,13.9,47.59359,-54.27349
2017-10-06 12:40:00+00:00,242.0,236.0,7.25,8.6,14.0,47.59359,-54.27349
2017-10-06 12:50:00+00:00,242.0,247.0,6.75,8.37,13.9,47.59359,-54.27349
2017-10-06 13:00:00+00:00,233.0,231.0,5.72,6.42,13.9,47.59359,-54.27349
2017-10-06 13:10:00+00:00,239.0,233.0,5.34,6.87,13.9,47.59359,-54.27349
2017-10-06 13:20:00+00:00,243.0,251.0,5.76,6.79,14.0,47.59359,-54.27349
2017-10-06 13:30:00+00:00,247.0,246.0,5.83,6.83,13.9,47.59359,-54.27349
2017-10-06 13:40:00+00:00,218.0,217.0,5.3,5.73,14.0,47.59359,-54.27349
2017-10-06 13:50:00+00:00,215.0,216.0,5.29,5.78,14.0,47.59359,-54.27349
2017-10-06 14:00:00+00:00,218.0,210.0,6.37,8.27,14.0,47.59359,-54.27349
2017-10-06 14:10:00+00:00,218.0,219.0,6.95,7.64,13.9,47.59359,-54.27349
2017-10-06 14:20:00+00:00,218.0,216.0,8.72,9.47,14.0,47.59359,-54.27349
2017-10-06 14:30:00+00:00,218.0,220.0,9.36,10.6,14.0,47.59359,-54.27349
2017-10-06 14:40:00+00:00,216.0,216.0,9.64,10.53,14.0,47.59359,-54.27349
2017-10-06 14:50:00+00:00,217.0,226.0,9.0,10.43,14.2,47.59359,-54.27349
2017-10-06 15:00:00+00:00,217.0,218.0,9.94,10.87,13.7,47.59359,-54.27349
2017-10-06 15:10:00+00:00,216.0,209.0,10.02,11.98,13.8,47.59359,-54.27349
2017-10-06 15:20:00+00:00,218.0,217.0,9.67,10.98,13.7,47.59359,-54.27349
2017-10-06 15:30:00+00:00,219.0,218.0,9.11,10.14,13.9,47.59359,-54.27349
2017-10-06 15:40:00+00:00,222.0,222.0,8.5,9.37,13.9,47.59359,-54.27349
2017-10-06 15:50:00+00:00,220.0,219.0,9.31,10.4,13.7,47.59359,-54.27349
2017-10-06 16:00:00+00:00,220.0,220.0,9.34,10.36,13.9,47.59359,-54.27349
2017-10-06 16:10:00+00:00,218.0,211.0,9.64,11.65,13.9,47.59359,-54.27349
2017-10-06 16:20:00+00:00,218.0,219.0,9.48,10.63,13.9,47.59359,-54.27349
2017-10-06 16:30:00+00:00,217.0,217.0,9.56,10.75,13.7,47.59359,-54.27349
2017-10-06 16:40:00+00:00,219.0,218.0,9.89,10.8,13.8,47.59359,-54.27349
2017-10-06 16:50:00+00:00,221.0,218.0,9.53,10.91,13.9,47.59359,-54.27349
2017-10-06 17:00:00+00:00,220.0,217.0,10.18,11.62,13.8,47.59359,-54.27349
2017-10-06 17:10:00+00:00,219.0,221.0,9.35,10.83,13.9,47.59359,-54.27349
2017-10-06 17:20:00+00:00,219.0,223.0,9.29,10.82,13.8,47.59359,-54.27349
2017-10-06 17:30:00+00:00,215.0,217.0,8.38,9.19,13.8,47.59359,-54.27349
2017-10-06 17:40:00+00:00,214.0,214.0,9.16,10.31,13.9,47.59359,-54.27349
2017-10-06 17:50:00+00:00,217.0,218.0,10.2,11.5,13.7,47.59359,-54.27349
2017-10-06 18:00:00+00:00,216.0,227.0,9.87,12.16,13.7,47.59359,-54.27349
2017-10-06 18:10:00+00:00,217.0,222.0,9.38,10.8,13.7,47.59359,-54.27349
2017-10-06 18:20:00+00:00,220.0,222.0,8.37,9.28,13.7,47.59359,-54.27349
2017-10-06 18:30:00+00:00,218.0,215.0,9.78,11.02,13.7,47.59359,-54.27349
2017-10-06 18:40:00+00:00,218.0,218.0,8.24,9.21,13.9,47.59359,-54.27349
2017-10-06 18:50:00+00:00,218.0,218.0,9.53,10.67,14.0,47.59359,-54.27349
2017-10-06 19:00:00+00:00,224.0,222.0,8.71,9.77,13.8,47.59359,-54.27349
2017-10-06 19:10:00+00:00,222.0,219.0,8.19,9.09,13.8,47.59359,-54.27349
2017-10-06 19:20:00+00:00,219.0,217.0,8.66,9.76,13.7,47.59359,-54.27349
2017-10-06 19:30:00+00:00,218.0,218.0,9.01,10.01,13.8,47.59359,-54.27349
2017-10-06 19:40:00+00:00,221.0,216.0,9.15,10.24,13.9,47.59359,-54.27349
2017-10-06 19:50:00+00:00,224.0,225.0,8.57,9.32,13.9,47.59359,-54.27349
2017-10-06 20:00:00+00:00,224.0,225.0,7.48,8.0,13.8,47.59359,-54.27349
2017-10-06 20:10:00+00:00,225.0,231.0,7.05,8.2,13.5,47.59359,-54.27349
2017-10-06 20:20:00+00:00,221.0,225.0,8.22,9.51,13.7,47.59359,-54.27349
2017-10-06 20:30:00+00:00,223.0,220.0,7.63,8.65,13.6,47.59359,-54.27349
2017-10-06 20:40:00+00:00,221.0,224.0,7.36,8.08,13.5,47.59359,-54.27349
2017-10-06 20:50:00+00:00,218.0,219.0,6.89,7.48,13.4,47.59359,-54.27349
2017-10-06 21:00:00+00:00,226.0,226.0,6.31,7.19,13.3,47.59359,-54.27349
2017-10-06 21:10:00+00:00,218.0,227.0,7.2,8.28,13.1,47.59359,-54.27349
2017-10-06 21:20:00+00:00,223.0,225.0,6.7,7.53,13.1,47.59359,-54.27349
2017-10-06 21:30:00+00:00,221.0,223.0,6.94,7.51,13.0,47.59359,-54.27349
2017-10-06 21:40:00+00:00,228.0,227.0,6.41,7.61,13.0,47.59359,-54.27349
2017-10-06 21:50:00+00:00,225.0,228.0,6.9,7.68,13.0,47.59359,-54.27349
2017-10-06 22:00:00+00:00,221.0,222.0,7.47,8.94,12.9,47.59359,-54.27349
2017-10-06 22:10:00+00:00,221.0,220.0,7.32,8.23,12.7,47.59359,-54.27349
2017-10-06 22:20:00+00:00,221.0,226.0,7.03,7.7,12.8,47.59359,-54.27349
2017-10-06 22:30:00+00:00,222.0,221.0,6.4,7.25,12.8,47.59359,-54.27349
2017-10-06 22:40:00+00:00,240.0,242.0,4.43,5.45,12.8,47.59359,-54.27349
2017-10-06 22:50:00+00:00,239.0,245.0,5.29,6.09,12.8,47.59359,-54.27349
2017-10-06 23:00:00+00:00,239.0,243.0,4.72,6.09,12.7,47.59359,-54.27349
2017-10-06 23:10:00+00:00,245.0,234.0,2.89,3.57,12.6,47.59359,-54.27349
2017-10-06 23:20:00+00:00,258.0,270.0,5.48,6.67,12.7,47.59359,-54.27349
2017-10-06 23:30:00+00:00,258.0,256.0,5.38,6.11,12.7,47.59359,-54.27349
2017-10-06 23:40:00+00:00,259.0,257.0,6.24,7.22,12.7,47.59359,-54.27349
2017-10-06 23:50:00+00:00,262.0,251.0,6.37,7.26,12.7,47.59359,-54.27349
